Regional Weather Roundup
Issued by NWS Northern Indiana

Home | Current Version | Previous Version | Text Only | Print | Product List | Glossary Off
Versions: 1 2 3 4 5 6 7 8 9 10 11 12 13 14 15 16 17 18 19 20 21 22 23 24 25 26 27 28 29 30 31 32 33 34 35 36 37 38 39 40 41 42 43 44 45 46 47 48 49 50

000
ASUS43 KIWX 032100
RWRIWX

KIWX WEATHER ROUNDUP
NATIONAL WEATHER SERVICE NORTHERN INDIANA
400 PM EST TUE MAR 03 2015

NOTE: "FAIR" INDICATES FEW OR NO CLOUDS BELOW 12,000 FEET WITH NO
SIGNIFICANT WEATHER AND/OR OBSTRUCTIONS TO VISIBILITY.

* THESE STATIONS ARE NOT UNDER NWS QUALITY CONTROL. THEY ALSO MAY NOT
  REPORT WEATHER SUCH AS PRECIPITATION OR FOG.

INZ001>027-032200-
NORTHERN INDIANA

CITY           SKY/WX    TMP DP  RH WIND       PRES   REMARKS
GARY*          CLOUDY    37  32  81 W17G29    29.67R FOG
KNOX*            N/A     36  32  87 W22G28    29.66R
SOUTH BEND     FOG       35  33  92 W14       29.65R VSB 1   WCI  26
ELKHART*       DRIZZLE   36  32  87 W15G26    29.63S
GOSHEN         CLOUDY    35  33  92 SW15      29.64R FOG     WCI  25
MONTICELLO*    CLOUDY    37  37  97 W18G25    29.69R FOG
WARSAW*        RAIN      36  34  93 W13G21    29.64S
ANGOLA*        CLOUDY    34  34 100 SW16      29.61F WCI  23
FORT WAYNE     CLOUDY    37  35  92 SW20G31   29.66S
PERU/GRISSOM   CLOUDY    37  37 100 SW23      29.66S

$$
INZ028>050-032200-
CENTRAL INDIANA

CITY           SKY/WX    TMP DP  RH WIND       PRES   REMARKS
LAFAYETTE      CLOUDY    39  37  92 W14G22    29.71S
KOKOMO*        CLOUDY    37  36  93 W21       29.70S
MUNCIE*        CLOUDY    39  37  92 SW17G29   29.70S FOG
INDIANAPOLIS   DRIZZLE   40  38  93 SW17      29.74R FOG

$$
MIZ043>046-050>051-056>058-064>065-071>073-077>080-032200-
SOUTHWEST LOWER MICHIGAN

CITY           SKY/WX    TMP DP  RH WIND       PRES   REMARKS
BATTLE CREEK   CLOUDY    34  31  88 SW16      29.57F FOG     WCI  24
BENTON HARBOR  CLOUDY    33  33 100 SW22      29.63S FOG     WCI  21
COLDWATER*     CLOUDY    33  33  96 SW15      29.61R FOG     WCI  23
HILLSDALE*     FOG       34  34  99 SW12      29.59F VSB 1   WCI  25
HOLLAND        CLOUDY    34  31  88 SW18G29   29.59F FOG     WCI  23
GRAND RAPIDS   FRZ DRZL  32  30  92 SW17      29.57F FOG     WCI  21
KALAMAZOO      CLOUDY    34  31  88 SW14      29.60S FOG     WCI  25
STURGIS*       MIX PCPN  34  34 100 SW15      29.61S WCI  24
THREE RIVERS*  CLOUDY    34  33  94 SW8       29.61S FOG     WCI  28

$$
OHZ001>008-015>018-024>025-032200-
NORTHWEST OHIO

CITY           SKY/WX    TMP DP  RH WIND       PRES   REMARKS
DEFIANCE       CLOUDY    36  33  89 SW13G21   29.64F FOG
FINDLAY        CLOUDY    39  35  86 SW28G43   29.64F
TOLEDO EXPRESS CLOUDY    34  33  96 SW9G18    29.61F FOG     WCI  27
TOLEDO METCALF CLOUDY    35  32  88 SW13      29.63F FOG     WCI  26
LIMA           CLOUDY    39 N/A N/A SW18G30   29.65F FOG

$$
AND FOR LAKE MICHIGAN COASTAL AND OPEN LAKE BUOY OBSERVATIONS

STATION/POSITION TEMP    WIND        PRES    VSBY  WAVE
                 AIR SEA DIR/SP/G                  HT/PER
                 (F)     (DEG/KT/KT) (MB)    (MI)  (FT/S)
CALUMET HARBOR    36     230/ 12/ 19 1002.6R
MICHIGAN CITY     35     210/ 20/ 25   N/A
SAINT JOSEPH      34     200/ 16/ 21 1003.7F

$$
&&



USA.gov is the U.S. government's official web portal to all federal, state and local government web resources and services.